Waarnemingen

Advertentie
Mijn weer
Hoogeveen aws, Nederland (6279): temperatuur & dauwpunt: 22.05.2017 20:00:00 - 28.05.2017 20:00:00 (CEST)Hoogeveen aws, Nederland (6279): temperatuur 5cm: 22.05.2017 20:00:00 - 28.05.2017 20:00:00 (CEST)Hoogeveen aws, Nederland (6279): windsnelheid & windstoten: 22.05.2017 20:00:00 - 28.05.2017 20:00:00 (CEST)Hoogeveen aws, Nederland (6279): windrichting: 22.05.2017 20:00:00 - 28.05.2017 20:00:00 (CEST)Hoogeveen aws, Nederland (6279): luchtdruk: 22.05.2017 20:00:00 - 28.05.2017 20:00:00 (CEST)Hoogeveen aws, Nederland (6279): zicht: 22.05.2017 20:00:00 - 28.05.2017 20:00:00 (CEST)Hoogeveen aws, Nederland (6279): neerslag: 22.05.2017 20:00:00 - 28.05.2017 20:00:00 (CEST)
Datum & Tijd tt [°C] td [°C] tt 5cm [°C] ff [km/u] ff [kn] fx [km/u] fx [kn] dd ppp [hPa] vv [km] rr [mm]
28.05.2017 20:00:00 21,1 12,3 21,2 11 6 - - NW 1017,5 48 0,0
28.05.2017 19:00:00 23,7 12,9 25,0 14 8 25 14 NW 1017,2 40 0,0
28.05.2017 18:00:00 23,9 10,8 24,5 14 8 29 16 WNW 1017,3 44 0,0
28.05.2017 17:00:00 24,8 9,1 26,6 22 12 29 16 WNW 1017,4 39 0,0
28.05.2017 16:00:00 25,3 12,9 26,3 18 10 32 18 W 1017,9 38 0,0
28.05.2017 15:00:00 25,8 13,4 27,2 14 8 29 16 W 1017,7 30 0,0
28.05.2017 14:00:00 25,6 13,0 26,6 22 12 29 16 WZW 1017,7 34 0,0
28.05.2017 13:00:00 24,3 13,8 25,4 22 12 29 16 WZW 1018,2 33 0,0
28.05.2017 12:00:00 23,6 15,1 24,3 22 12 29 16 WZW 1018,2 38 0,0
28.05.2017 11:00:00 22,3 15,6 22,9 18 10 25 14 ZW 1018,3 28 0,0
28.05.2017 10:00:00 21,0 15,5 21,4 14 8 22 12 ZW 1017,8 28 0,0
28.05.2017 09:00:00 19,2 16,1 19,3 11 6 18 10 ZW 1018,1 22 0,0
28.05.2017 08:00:00 16,9 14,7 17,3 7 4 14 8 ZZW 1017,8 25 0,0
28.05.2017 07:00:00 16,1 14,7 15,8 11 6 14 8 Z 1017,9 15 0,7
28.05.2017 06:00:00 16,5 15,0 16,2 11 6 36 19 WZW 1018,3 1,7 1,2
28.05.2017 05:00:00 16,6 15,5 16,4 11 6 22 12 NNW 1016,6 5 1,4
28.05.2017 04:00:00 17,9 14,9 16,0 7 4 14 8 W 1017,0 13 0,0
28.05.2017 03:00:00 15,6 14,8 13,1 4 2 7 4 ZZW 1017,1 10 0,0
28.05.2017 02:00:00 16,5 14,8 15,0 4 2 7 4 Z 1017,2 9 0,0
28.05.2017 01:00:00 17,9 15,1 16,7 4 2 11 6 W 1016,8 28 0,0
28.05.2017 00:00:00 19,7 15,2 18,5 7 4 29 16 WNW 1017,1 34 0,0
27.05.2017 23:00:00 21,8 15,0 21,2 18 10 25 14 W 1016,8 39 0,0
27.05.2017 22:00:00 24,4 13,0 21,3 7 4 18 10 ZO 1015,8 43 0,0
27.05.2017 21:00:00 26,1 13,0 24,3 11 6 22 12 ZO 1015,3 48 0,0
27.05.2017 20:00:00 28,4 12,6 27,7 14 8 32 18 ZO 1015,3 45 0,0
27.05.2017 19:00:00 29,3 12,2 29,2 22 12 32 18 ZO 1015,2 39 0,0
27.05.2017 18:00:00 29,6 12,3 30,0 18 10 36 19 ZO 1015,7 34 0,0
27.05.2017 17:00:00 29,8 11,4 30,8 18 10 36 19 ZZO 1016,0 34 0,0
27.05.2017 16:00:00 29,8 11,8 30,8 22 12 43 23 ZZO 1016,3 37 0,0
27.05.2017 15:00:00 29,3 10,4 30,8 25 14 36 19 ZO 1016,9 37 0,0
27.05.2017 14:00:00 28,6 10,2 30,1 25 14 40 21 ZO 1017,3 38 0,0
27.05.2017 13:00:00 27,9 11,2 29,4 22 12 36 19 ZO 1017,8 34 0,0
27.05.2017 12:00:00 27,2 12,9 28,2 18 10 36 19 ZO 1018,3 32 0,0
27.05.2017 11:00:00 25,8 12,1 26,9 22 12 32 18 OZO 1018,9 35 0,0
27.05.2017 10:00:00 23,7 13,4 24,7 14 8 25 14 ZZO 1019,4 33 0,0
27.05.2017 09:00:00 21,2 13,9 21,7 18 10 25 14 ZO 1019,9 29 0,0
27.05.2017 08:00:00 18,4 14,2 18,4 14 8 22 12 OZO 1020,1 17 0,0
27.05.2017 07:00:00 16,0 13,5 15,7 11 6 14 8 O 1019,9 11 0,0
27.05.2017 06:00:00 14,1 12,5 12,0 7 4 11 6 O 1020,0 9 0,0
27.05.2017 05:00:00 14,0 12,5 11,9 7 4 14 8 O 1019,8 10 0,0
27.05.2017 04:00:00 14,7 12,5 13,5 7 4 18 10 O 1019,6 13 0,0
27.05.2017 03:00:00 15,3 12,5 14,2 11 6 25 14 O 1019,7 18 0,0
27.05.2017 02:00:00 16,2 12,6 15,2 14 8 25 14 O 1019,8 26 0,0
27.05.2017 01:00:00 15,6 12,0 14,0 11 6 18 10 ONO 1020,1 38 0,0
27.05.2017 00:00:00 16,9 12,4 15,5 14 8 22 12 ONO 1020,3 41 0,0
26.05.2017 23:00:00 16,9 12,6 15,0 11 6 18 10 ONO 1020,5 44 0,0
26.05.2017 22:00:00 18,4 13,0 16,9 11 6 25 14 NO 1020,6 49 0,0
26.05.2017 21:00:00 21,5 13,4 20,5 18 10 29 16 NO 1020,3 49 0,0
26.05.2017 20:00:00 23,2 14,3 23,2 14 8 29 16 NNO 1020,4 46 0,0
26.05.2017 19:00:00 24,1 14,2 24,6 18 10 29 16 NO 1020,4 40 0,0
26.05.2017 18:00:00 24,9 12,4 25,7 18 10 29 16 ONO 1020,8 42 0,0
26.05.2017 17:00:00 25,1 11,8 26,4 18 10 32 18 O 1021,1 35 0,0
26.05.2017 16:00:00 25,2 10,2 27,2 11 6 29 16 ONO 1021,5 38 0,0
26.05.2017 15:00:00 25,0 10,6 26,9 14 8 25 14 O 1022,0 35 0,0
26.05.2017 14:00:00 24,1 11,6 26,5 14 8 22 12 ONO 1022,7 34 0,0
26.05.2017 13:00:00 23,2 10,6 25,3 11 6 22 12 ONO 1023,1 32 0,0
26.05.2017 12:00:00 21,9 13,0 24,4 11 6 18 10 ONO 1023,4 35 0,0
26.05.2017 11:00:00 20,3 13,2 22,3 11 6 18 10 OZO 1023,7 32 0,0
26.05.2017 10:00:00 17,6 13,0 18,9 4 2 11 6 NO 1024,2 19 0,0
26.05.2017 09:00:00 14,6 12,6 16,1 4 2 7 4 OZO 1024,3 9 0,0
26.05.2017 08:00:00 12,2 12,1 12,5 4 2 7 4 NO 1024,0 0,2 0,0
26.05.2017 07:00:00 10,9 10,9 11,1 7 4 11 6 NNO 1024,0 0,1 0,0
26.05.2017 06:00:00 9,7 9,6 8,4 4 2 4 2 NW 1023,9 4,3 0,0
26.05.2017 05:00:00 9,6 9,4 7,7 4 2 7 4 NO 1023,6 1,4 0,0
26.05.2017 04:00:00 10,4 9,7 8,6 4 2 4 2 N 1023,8 12 0,0
26.05.2017 03:00:00 10,9 9,7 9,5 4 2 11 6 N 1023,8 23 0,0
26.05.2017 02:00:00 11,3 9,8 9,8 4 2 7 4 N 1024,1 46 0,0
26.05.2017 01:00:00 11,3 9,7 9,7 4 2 7 4 N 1024,3 46 0,0
26.05.2017 00:00:00 12,6 9,8 11,1 7 4 11 6 N 1024,2 49 0,0
25.05.2017 23:00:00 13,9 9,8 13,1 11 6 14 8 N 1024,2 50 0,0
25.05.2017 22:00:00 15,6 10,7 15,0 11 6 14 8 NNO 1024,1 50 0,0
25.05.2017 21:00:00 18,1 11,8 17,7 14 8 25 14 NNO 1023,7 47 0,0
25.05.2017 20:00:00 20,2 12,4 20,4 14 8 22 12 NNO 1023,6 49 0,0
25.05.2017 19:00:00 21,3 13,2 22,2 14 8 25 14 N 1023,7 39 0,0
25.05.2017 18:00:00 21,9 12,8 23,2 14 8 32 18 N 1024,0 42 0,0
25.05.2017 17:00:00 21,8 12,4 23,7 14 8 25 14 N 1024,3 41 0,0
25.05.2017 16:00:00 22,0 12,8 23,8 14 8 29 16 N 1024,4 37 0,0
25.05.2017 15:00:00 21,7 12,3 23,7 14 8 29 16 N 1024,8 45 0,0
25.05.2017 14:00:00 21,2 11,6 23,0 18 10 29 16 NNW 1025,1 38 0,0
25.05.2017 13:00:00 20,0 11,4 21,8 11 6 22 12 NNW 1025,3 31 0,0
25.05.2017 12:00:00 18,5 11,5 20,6 11 6 25 14 N 1025,6 28 0,0
25.05.2017 11:00:00 16,3 10,9 18,4 11 6 22 12 N 1025,7 30 0,0
25.05.2017 10:00:00 15,2 11,0 16,7 7 4 11 6 NW 1025,5 22 0,0
25.05.2017 09:00:00 12,7 10,2 13,6 7 4 18 10 WNW 1025,5 13 0,0
25.05.2017 08:00:00 11,0 9,6 11,7 11 6 18 10 NW 1025,4 9 0,0
25.05.2017 07:00:00 10,1 9,3 10,0 11 6 14 8 NNW 1024,8 4,8 0,0
25.05.2017 06:00:00 9,9 9,2 9,4 7 4 14 8 NW 1024,7 7 0,0
25.05.2017 05:00:00 10,3 9,3 10,2 7 4 14 8 NNW 1024,4 10 0,0
25.05.2017 04:00:00 10,7 9,6 10,4 7 4 14 8 NW 1024,5 10 0,0
25.05.2017 03:00:00 11,0 9,6 10,8 11 6 18 10 NNW 1024,6 12 0,0
25.05.2017 02:00:00 11,4 9,9 11,2 11 6 14 8 NW 1024,6 14 0,0
25.05.2017 01:00:00 11,3 10,1 10,9 7 4 14 8 NNW 1024,7 15 0,0
25.05.2017 00:00:00 11,1 9,7 10,4 7 4 18 10 NNW 1024,5 18 0,0
24.05.2017 23:00:00 12,1 10,6 11,2 11 6 18 10 N 1024,5 20 0,0
24.05.2017 22:00:00 12,9 10,8 12,3 11 6 25 14 NNW 1024,1 25 0,0
24.05.2017 21:00:00 15,3 10,8 14,8 18 10 32 18 NW 1023,7 49 0,0
24.05.2017 20:00:00 17,1 10,8 17,3 18 10 32 18 NW 1023,3 48 0,0
24.05.2017 19:00:00 18,3 11,5 18,8 22 12 36 19 WNW 1022,8 42 0,0
24.05.2017 18:00:00 19,5 11,2 19,4 18 10 32 18 WNW 1022,8 40 0,0
24.05.2017 17:00:00 18,7 11,3 19,7 22 12 29 16 WNW 1023,1 35 0,0
24.05.2017 16:00:00 18,3 11,2 18,7 22 12 32 18 NW 1023,3 35 0,0
24.05.2017 15:00:00 18,8 10,8 19,2 18 10 29 16 WNW 1022,9 39 0,0
24.05.2017 14:00:00 18,5 10,7 19,0 14 8 25 14 W 1023,2 31 0,0
24.05.2017 13:00:00 19,0 9,1 19,8 14 8 22 12 WZW 1023,3 33 0,0
24.05.2017 12:00:00 17,0 8,2 17,6 7 4 14 8 W 1023,8 38 0,0
24.05.2017 11:00:00 16,4 7,6 17,2 4 2 11 6 ZZW 1023,6 35 0,0
24.05.2017 10:00:00 15,2 7,9 15,9 4 2 11 6 NW 1023,7 38 0,0
24.05.2017 09:00:00 14,7 8,5 15,5 4 2 11 6 NW 1023,7 37 0,0
24.05.2017 08:00:00 13,0 8,5 13,4 7 4 11 6 NW 1023,3 27 0,0
24.05.2017 07:00:00 11,7 8,9 11,5 4 2 7 4 ZW 1022,7 23 0,0
24.05.2017 06:00:00 10,3 9,0 9,0 4 2 7 4 NNW 1022,6 21 0,0
24.05.2017 05:00:00 9,5 8,1 8,7 4 2 11 6 W 1022,4 21 0,0
24.05.2017 04:00:00 11,0 8,6 10,4 11 6 14 8 W 1022,4 25 0,0
24.05.2017 03:00:00 11,0 8,3 10,2 11 6 14 8 W 1022,4 26 0,0
24.05.2017 02:00:00 10,2 7,8 8,9 7 4 11 6 W 1022,6 26 0,0
24.05.2017 01:00:00 11,4 7,7 10,7 11 6 14 8 W 1022,7 32 0,0
24.05.2017 00:00:00 11,9 7,5 11,4 7 4 14 8 W 1022,7 32 0,0
23.05.2017 23:00:00 12,3 7,3 11,8 7 4 14 8 W 1022,6 35 0,0
23.05.2017 22:00:00 13,0 6,9 12,2 11 6 - - W 1022,2 37 -
23.05.2017 21:00:00 13,5 7,3 12,8 14 8 25 14 WNW 1021,5 34 0,0
23.05.2017 20:00:00 14,7 7,0 14,8 18 10 32 18 NW 1021,2 36 0,0
23.05.2017 19:00:00 16,0 5,3 15,9 25 14 40 21 WNW 1020,5 42 0,0
23.05.2017 18:00:00 16,6 5,5 16,9 25 14 40 21 NNW 1019,9 40 0,0
23.05.2017 17:00:00 17,8 7,6 18,4 29 16 43 23 NW 1019,4 32 0,0
23.05.2017 16:00:00 18,2 10,8 18,8 29 16 43 23 WNW 1018,8 30 0,0
23.05.2017 15:00:00 18,8 12,1 19,4 29 16 43 23 WNW 1017,9 26 0,0
23.05.2017 14:00:00 21,7 13,7 22,5 29 16 43 23 W 1017,1 16 0,0
23.05.2017 13:00:00 22,4 13,3 22,8 29 16 40 21 W 1016,4 23 0,0
23.05.2017 12:00:00 22,7 10,6 23,6 18 10 32 18 WZW 1015,8 34 0,0
23.05.2017 11:00:00 21,3 10,6 21,8 11 6 25 14 WZW 1015,4 25 0,0
23.05.2017 10:00:00 20,6 10,6 21,1 18 10 25 14 WNW 1015,2 19 0,0
23.05.2017 09:00:00 19,5 10,9 20,1 14 8 25 14 W 1014,9 17 0,0
23.05.2017 08:00:00 17,8 10,9 17,7 11 6 14 8 ZW 1014,5 19 0,0
23.05.2017 07:00:00 15,7 10,7 14,4 4 2 11 6 ZZW 1014,3 25 0,0
23.05.2017 06:00:00 13,9 9,5 12,3 7 4 11 6 Z 1013,9 27 0,0
23.05.2017 05:00:00 14,5 9,6 12,9 7 4 11 6 ZZO 1014,1 38 0,0
23.05.2017 04:00:00 13,9 10,2 12,7 7 4 11 6 OZO 1014,4 36 0,0
23.05.2017 03:00:00 14,9 9,4 12,3 7 4 11 6 OZO 1014,7 38 0,0
23.05.2017 02:00:00 15,4 9,2 12,4 7 4 11 6 OZO 1015,0 46 0,0
23.05.2017 01:00:00 16,3 9,1 13,9 7 4 11 6 OZO 1015,2 48 0,0
23.05.2017 00:00:00 16,8 9,0 14,0 7 4 11 6 OZO 1015,6 44 0,0
22.05.2017 23:00:00 17,4 8,6 14,3 7 4 11 6 O 1016,1 46 0,0
22.05.2017 22:00:00 18,8 8,5 15,4 4 2 11 6 O 1016,1 46 0,0
22.05.2017 21:00:00 20,1 9,0 17,6 4 2 14 8 OZO 1016,0 49 0,0
22.05.2017 20:00:00 21,7 7,2 19,9 11 6 14 8 ZO 1016,1 47 0,0

tt = temperatuur
td = dauwpunt
tt 5cm = temperatuur 5cm
ff = windsnelheid
fx = windstoten
dd = windrichting
ppp = luchtdruk
vv = zicht
rr = neerslag

Weerstations in de omgeving